Temperature
24 24 24 24 24 26 28 29 29 29 30 30 30 30 29 27 26 23 22 22 21 20 21 20 20 20 20 19 19 19 19 19 19 19 19 19 18 18 18 18 18 18 18 18 18 18 19 19 19
24 24 24 24 24 27 28 29 29 29 30 30 30 30 28 27 25 23 22 22 21 20 20 20 20 20 20 19 19 19 19 19 19 19 18 18 18 18 18 18 18 18 18 18 18 18 18 18 19
24 24 25 26 27 28 28 29 29 30 30 30 30 29 27 27 25 23 22 21 21 20 19 20 20 20 19 19 19 19 18 18 18 18 18 18 18 18 18 18 18 18 18 18 18 18 18 18 18
24 25 27 27 28 29 30 30 30 30 30 30 29 28 26 26 25 23 22 21 21 20 19 20 20 20 19 19 19 19 18 18 18 18 18 18 18 18 18 18 18 18 18 18 18 18 18 18 18
25 26 26 27 29 30 31 31 31 30 30 30 29 28 26 24 23 22 22 21 21 20 19 20 20 19 19 19 19 18 18 18 18 18 18 18 18 18 18 18 18 18 18 18 18 18 18 18 18
26 28 25 26 29 30 31 31 31 31 30 30 29 28 26 24 23 22 22 21 21 20 19 19 19 19 19 19 19 18 18 18 18 18 18 18 17 17 17 18 18 18 18 18 18 18 18 18 18
26 25 25 26 28 30 31 31 31 31 31 30 29 28 26 25 23 22 22 21 21 20 19 19 19 19 19 19 19 18 18 18 18 18 18 17 17 17 17 18 18 18 18 18 18 18 18 18 18
26 27 27 28 29 29 31 31 31 30 30 29 29 28 26 25 24 23 22 22 21 20 19 19 19 19 19 19 19 18 18 18 18 18 18 17 17 17 17 18 18 18 18 18 17 18 18 18 18
26 27 26 28 29 30 31 31 31 30 30 29 29 28 26 25 24 23 23 22 22 21 20 19 19 18 18 18 19 19 18 18 18 18 18 18 17 17 17 18 18 18 18 17 17 18 18 18 18
28 26 27 28 30 30 31 31 30 30 30 30 29 27 26 25 25 24 23 23 22 22 21 20 19 19 18 18 19 19 18 18 18 18 18 17 17 17 17 18 18 18 17 17 17 17 17 18 18
29 28 29 30 30 31 31 30 30 30 30 30 29 27 26 26 25 25 24 24 23 23 22 21 20 19 19 18 18 18 18 18 18 17 18 17 17 17 17 17 18 17 17 17 17 17 18 18 18
29 29 30 30 30 30 30 30 30 30 30 30 29 28 27 26 26 25 25 24 24 23 22 22 21 20 19 19 19 18 18 18 18 17 17 17 17 17 17 17 17 17 17 17 17 18 18 18 19
28 29 30 29 29 29 30 30 30 30 30 30 29 28 27 27 26 26 26 25 24 23 22 22 22 21 20 19 19 19 18 18 18 18 18 18 18 17 17 17 17 17 17 17 17 18 18 18 18
28 29 29 29 29 29 30 30 30 30 30 30 30 29 28 28 27 27 26 26 25 24 23 22 22 22 21 20 20 19 19 18 18 18 18 18 18 18 18 17 17 17 18 18 18 18 18 18 18
28 28 28 29 29 30 30 29 30 30 30 30 30 29 29 28 28 28 27 26 26 25 24 23 22 22 21 21 20 19 19 19 18 18 18 18 18 18 18 18 17 18 18 18 18 18 18 17 17
28 28 27 29 30 30 29 27 30 30 30 30 30 29 29 29 28 28 28 27 26 25 24 23 22 22 22 21 20 20 19 19 19 18 18 18 18 18 18 18 17 17 18 18 18 18 17 17 17
27 27 27 28 30 29 29 28 30 30 30 30 29 29 29 29 28 28 28 27 27 26 25 24 23 22 22 21 21 20 19 19 19 18 18 18 18 18 18 18 18 18 18 18 17 17 17 17 17
25 26 26 26 26 26 26 27 29 30 29 29 29 29 29 29 28 28 28 27 27 26 25 25 24 22 22 21 21 20 19 19 19 18 18 18 18 18 18 18 18 18 18 17 17 17 17 17 17
25 25 26 25 24 24 25 26 28 29 29 29 29 29 29 29 29 28 28 27 26 25 25 24 24 23 22 21 20 20 19 19 19 18 18 18 18 18 18 18 17 18 18 17 17 17 17 17 17
25 24 24 24 24 24 24 25 27 28 28 29 29 29 29 30 29 28 27 26 25 24 24 23 23 22 21 21 20 20 19 19 18 18 18 18 18 18 18 18 17 18 17 17 17 17 17 16 16
23 22 22 21 22 23 23 23 25 27 28 28 29 29 29 29 28 27 26 25 24 23 23 22 22 21 21 20 20 19 18 18 18 18 18 18 18 17 17 17 17 17 17 17 17 17 16 16 16
23 23 21 21 20 20 20 20 23 25 25 27 28 28 28 28 28 26 25 24 23 22 22 21 21 21 20 20 19 18 18 18 18 18 18 18 18 17 17 17 17 17 17 17 17 16 16 16 16
24 23 22 21 20 19 20 19 21 24 24 26 27 28 28 28 27 25 24 23 23 22 21 21 21 20 20 19 18 18 18 18 18 17 17 17 17 17 17 17 17 17 16 16 16 16 16 16 16
24 23 22 21 20 20 21 21 21 23 24 25 27 27 27 27 26 25 24 23 22 21 21 21 20 20 19 19 18 18 18 17 17 17 17 17 17 17 16 16 16 16 16 16 16 16 16 16 16
24 23 21 20 19 20 22 22 22 24 25 26 26 27 27 26 25 24 23 22 22 21 21 20 20 20 19 19 19 19 18 18 17 17 17 17 16 16 16 16 16 16 16 16 16 16 16 15 15
24 24 21 20 20 20 21 21 24 25 26 26 26 26 25 25 24 24 23 22 21 21 21 20 20 20 19 19 19 19 19 18 17 17 17 16 16 16 16 16 16 16 16 16 15 15 15 15 15
24 24 25 23 22 21 22 22 24 24 25 25 26 25 24 24 24 23 22 22 21 21 21 20 20 20 19 19 19 19 19 18 17 17 16 16 16 16 15 15 15 15 15 15 15 15 15 15 15
24 24 23 21 19 20 22 22 19 20 20 21 23 24 24 24 23 23 23 22 22 21 21 20 20 20 19 19 19 18 18 18 17 17 16 16 15 15 15 15 15 15 15 15 15 14 14 14 14
21 21 21 21 20 20 19 19 19 16 16 17 19 21 22 22 22 23 23 23 22 22 21 21 20 20 19 19 19 18 18 17 17 16 16 16 15 15 15 15 15 15 15 15 14 14 14 14 14
19 17 17 17 18 19 18 18 18 17 17 18 19 20 22 22 23 23 23 23 23 22 22 21 20 20 20 19 19 18 18 17 17 16 16 16 15 15 15 15 15 15 15 14 14 14 14 13 13
Wind_Speed
15 14 9 4 3 1 9 7 9 10 10 9 6 6 15 15 10 7 5 10 17 17 17 15 14 13 11 10 9 8 8 9 9 9 9 9 10 10 10 10 9 9 9 11 12 13 13 13 13
12 11 5 4 3 4 8 8 9 11 7 4 6 11 16 13 12 10 5 10 16 17 16 15 14 12 11 10 9 9 9 8 8 8 9 9 10 10 10 10 9 9 9 11 12 13 13 14 13
11 10 5 4 2 8 8 8 8 9 8 8 7 13 12 8 10 10 10 11 14 15 15 17 15 12 11 10 9 9 9 8 8 9 9 10 10 10 10 9 9 8 9 10 11 12 13 13 13
7 5 5 3 5 8 6 8 7 5 5 7 7 10 11 10 8 13 13 13 14 14 15 17 14 12 11 10 9 9 9 9 9 10 10 11 11 10 10 9 8 8 8 9 10 11 12 12 12
5 5 6 2 4 6 7 8 6 5 7 8 9 12 12 11 14 14 11 13 14 14 15 15 14 12 10 9 9 9 9 10 10 11 11 12 11 11 10 9 8 7 7 8 9 10 11 11 10
4 5 3 3 5 5 5 5 4 4 5 4 6 10 9 11 12 12 11 10 13 13 13 14 13 11 10 9 9 9 10 11 12 12 12 12 12 11 10 9 8 7 7 7 8 9 10 9 8
4 6 4 4 4 2 3 4 6 6 6 9 6 6 9 12 11 13 12 11 12 13 13 13 13 11 10 10 9 10 11 12 12 12 12 12 12 12 11 9 8 7 7 7 8 9 8 7 5
4 6 5 2 4 2 3 2 4 7 6 8 3 5 10 13 12 14 13 12 13 13 12 12 13 13 12 11 10 11 11 12 13 12 13 13 12 12 11 10 8 8 8 8 8 7 6 5 3
4 6 7 5 2 2 2 1 3 1 3 4 6 14 15 14 13 13 12 11 11 12 12 12 12 11 12 13 12 12 12 12 12 11 13 13 12 12 10 11 9 8 8 7 6 6 6 5 4
5 6 6 5 4 0 2 0 2 2 2 3 9 13 15 11 11 11 11 12 11 11 13 13 13 11 10 11 12 11 11 11 11 12 12 12 12 11 13 13 10 8 8 7 7 7 6 7 7
7 9 6 4 5 4 2 2 1 4 3 1 9 14 13 11 10 10 10 11 11 10 11 14 14 12 10 8 8 7 8 9 10 12 14 12 9 12 12 9 8 8 8 8 7 8 9 8 4
9 10 7 8 4 4 6 4 3 3 3 3 6 15 14 12 11 10 10 11 11 10 8 11 13 14 12 10 7 7 5 6 5 9 12 8 4 5 7 6 9 9 9 7 7 5 2 1 3
9 11 9 7 6 6 9 8 4 4 3 2 5 11 14 13 12 11 11 12 13 13 10 9 10 13 13 11 8 8 7 6 7 7 8 8 4 5 5 4 6 7 7 4 3 1 1 3 7
9 9 9 9 9 10 11 10 9 8 7 6 6 8 11 11 11 12 12 11 12 14 13 10 10 11 12 11 9 8 6 5 7 6 7 9 6 3 5 4 4 3 5 6 3 3 1 5 5
9 11 13 13 14 13 11 13 13 12 9 9 8 8 8 10 10 11 13 12 12 14 15 13 11 10 11 12 10 8 6 7 5 6 9 10 8 5 4 4 5 3 5 5 3 4 3 5 4
13 13 14 15 16 13 11 11 10 6 8 9 8 8 9 9 9 9 11 11 11 13 14 14 12 11 10 9 9 7 6 6 5 7 7 9 10 9 5 5 6 5 5 3 4 3 3 4 3
13 13 13 11 8 8 11 10 8 4 6 7 7 7 9 10 9 8 9 10 10 10 10 13 13 11 9 8 8 6 5 6 4 5 5 6 8 9 5 5 4 6 4 4 5 4 3 4 3
11 10 9 7 9 8 9 9 9 7 8 8 8 8 9 11 11 10 8 7 7 7 7 8 11 11 9 8 7 5 4 5 3 3 4 7 6 8 5 5 5 5 5 4 4 5 4 4 3
10 13 13 7 7 8 10 13 12 10 7 8 9 10 11 10 12 11 10 9 6 4 3 4 6 7 7 6 6 5 4 4 4 4 5 6 6 7 5 6 6 4 5 6 5 4 5 3 2
9 11 12 9 11 9 12 16 16 13 11 10 11 12 11 9 9 11 11 9 7 6 4 3 5 5 6 5 5 5 5 4 5 5 5 6 6 6 4 7 5 3 5 6 5 5 4 2 2
8 7 8 10 12 10 12 14 16 16 15 13 12 10 8 5 6 13 12 10 8 8 6 4 4 7 6 6 4 4 3 2 4 5 5 6 6 6 5 6 6 5 5 5 5 5 5 3 2
9 5 5 5 5 5 5 9 13 16 14 12 10 8 6 4 4 12 13 11 10 9 7 6 6 7 6 5 4 5 5 5 6 6 6 6 6 6 6 6 6 6 6 7 7 6 5 5 4
7 3 5 6 5 7 8 8 10 12 10 8 6 4 3 5 7 13 13 11 11 10 7 7 8 7 6 5 5 4 5 5 5 5 7 7 7 7 7 7 7 7 7 8 8 7 7 6 5
4 5 7 7 6 9 11 10 7 4 4 4 5 2 3 6 8 13 13 11 11 9 7 7 7 7 5 5 6 7 6 4 3 3 4 4 4 4 7 7 7 7 6 8 8 8 9 8 7
8 8 5 5 5 6 4 5 6 5 2 2 3 1 4 7 10 13 13 11 10 9 8 8 8 7 5 5 7 7 6 4 4 4 4 3 3 4 5 6 6 6 6 7 8 8 8 9 9
10 12 9 6 5 3 2 5 4 4 4 2 2 6 6 8 10 12 12 11 10 9 8 8 8 7 6 4 4 2 7 3 0 2 2 2 3 3 4 5 5 6 6 7 7 7 8 8 8
14 14 14 12 14 12 7 7 3 2 3 2 5 8 7 9 10 11 12 11 10 10 9 8 9 7 7 5 3 2 3 4 2 2 2 2 3 3 4 4 4 4 5 5 6 5 7 6 7
14 14 8 4 5 7 7 2 5 12 16 15 10 4 5 6 9 10 11 12 11 10 9 9 9 8 7 6 5 4 1 3 2 1 3 2 3 4 5 4 5 5 5 5 5 4 5 6 6
10 8 9 6 7 5 3 2 5 10 14 17 17 13 9 7 5 1 6 10 11 11 11 9 9 8 8 7 6 6 5 4 4 3 3 3 4 5 5 6 5 5 5 5 5 4 4 5 5
8 8 8 5 6 6 2 2 8 9 9 13 16 15 10 6 3 3 3 5 8 10 11 11 10 9 9 7 7 7 6 6 4 4 5 5 5 6 6 7 7 7 7 6 6 6 5 5 5
Wind_Direction
288 267 252 260 278 183 67 62 58 44 44 49 33 38 69 53 44 83 157 147 124 127 133 142 142 143 144 145 145 141 134 130 127 123 119 118 117 116 110 102 91 83 75 71 68 67 65 65 68
291 298 270 235 250 85 77 67 63 59 39 21 46 42 70 64 80 104 127 107 125 130 139 143 144 146 147 150 153 152 147 143 139 133 128 126 123 119 113 106 96 87 78 73 70 68 67 66 66
265 271 269 250 38 70 74 65 69 63 38 24 56 65 57 51 84 117 124 131 131 130 136 135 146 147 148 153 156 157 156 153 149 142 136 130 126 121 115 108 100 90 82 76 73 71 69 67 64
276 256 245 258 69 65 78 95 83 73 70 39 55 77 74 50 74 108 130 144 128 129 130 137 146 148 150 153 158 161 161 158 153 146 139 132 128 124 118 111 102 93 87 81 77 76 73 67 61
246 265 268 273 97 87 65 66 88 78 61 44 63 92 91 78 94 114 134 128 131 131 130 140 146 150 151 154 158 161 160 157 152 145 138 133 131 127 121 112 104 98 92 85 82 83 79 70 59
266 262 298 299 96 75 82 82 79 72 91 99 90 100 100 116 116 127 124 131 132 132 133 137 146 150 153 155 157 159 156 152 146 142 137 135 133 129 122 114 109 104 96 89 89 89 82 72 60
287 286 264 252 109 100 66 36 40 25 46 52 57 101 116 118 124 134 134 137 136 136 139 145 152 155 157 156 157 157 153 149 145 141 138 137 134 129 125 120 117 111 104 100 100 99 93 84 73
300 286 281 235 129 136 84 42 43 13 43 51 25 105 123 124 141 139 143 145 146 148 150 155 155 158 159 157 157 154 152 149 146 144 141 139 137 137 138 130 127 122 115 112 115 120 121 118 122
268 271 304 327 105 140 131 236 91 358 35 79 77 83 108 127 140 141 145 151 153 156 155 155 155 158 156 155 151 152 152 151 149 149 150 151 157 156 157 128 134 129 126 130 148 164 160 162 185
231 275 294 338 340 58 161 322 24 297 40 124 113 105 116 139 146 151 157 158 155 160 160 157 156 155 156 149 145 155 157 158 171 164 168 188 183 159 134 134 139 141 149 165 194 210 206 203 210
245 260 294 314 307 318 273 182 219 307 339 94 143 139 141 154 160 165 168 158 156 164 158 158 158 155 144 135 150 155 159 173 192 176 180 201 160 129 131 151 153 167 178 197 200 231 233 207 197
269 288 299 304 330 306 284 258 226 245 311 17 135 146 152 168 176 177 173 160 158 154 155 156 154 150 152 150 153 159 167 178 190 195 188 179 160 158 158 166 179 180 197 200 198 227 239 192 168
260 270 278 269 282 270 269 273 267 272 269 253 143 151 162 179 182 180 176 165 159 152 159 160 157 156 158 152 157 170 171 178 180 183 194 169 168 174 161 173 172 196 177 177 221 193 43 44 42
288 302 296 286 271 255 254 257 250 243 246 228 187 179 176 181 188 179 175 173 165 158 162 164 171 160 159 157 171 170 172 171 165 171 189 181 179 187 162 179 164 201 170 180 181 136 115 71 58
281 282 273 261 254 249 252 250 248 241 228 221 209 201 187 183 193 188 176 174 170 163 166 167 175 171 168 165 172 164 167 167 163 171 194 190 186 196 162 180 165 204 186 175 159 124 102 106 123
273 261 258 254 241 234 235 252 261 242 210 216 221 208 188 196 201 198 178 174 168 164 167 169 175 177 174 165 164 163 170 161 159 167 196 196 190 202 170 181 171 196 183 154 119 122 112 112 123
260 256 267 279 264 238 230 245 256 204 227 223 224 223 199 195 204 207 184 170 159 159 165 169 172 174 174 162 155 160 165 149 153 163 182 203 198 206 174 178 181 187 163 149 152 155 138 134 107
286 298 300 318 354 334 294 270 263 231 224 231 235 234 222 207 197 202 178 148 138 151 168 171 168 170 168 156 153 146 147 144 147 155 176 199 206 211 179 159 204 185 153 151 156 144 122 117 134
298 296 293 306 355 331 304 297 289 279 258 237 236 246 244 221 198 185 153 133 138 155 170 159 148 157 152 147 151 151 165 163 164 178 193 202 212 214 180 169 202 192 153 154 157 131 126 126 148
301 300 305 326 351 330 310 298 291 286 279 261 249 246 249 237 198 146 132 135 148 139 121 120 136 143 143 145 153 163 169 184 190 190 203 206 214 220 194 176 180 168 140 148 148 123 135 157 160
291 300 311 319 328 329 323 297 288 284 280 272 258 251 251 243 172 140 136 129 122 116 109 85 90 109 106 119 124 143 149 187 200 199 207 211 208 216 202 194 179 172 153 155 155 144 148 173 224
270 255 256 286 314 302 321 299 290 289 291 281 270 249 231 211 162 136 134 129 128 116 115 126 112 111 115 127 147 163 176 195 207 202 203 211 211 212 204 201 190 179 163 163 173 166 157 162 208
271 241 239 247 248 261 248 254 279 285 282 280 272 273 244 165 149 133 133 131 126 122 131 123 116 120 135 156 159 184 199 210 219 206 196 203 210 211 203 202 200 192 173 174 176 172 168 173 189
246 243 247 244 246 257 245 228 265 261 265 298 305 262 182 147 142 130 126 121 117 119 121 118 123 118 133 158 177 197 200 202 207 186 187 196 196 207 211 208 203 199 186 183 183 182 181 186 191
229 244 264 250 230 256 297 237 238 215 234 287 302 32 120 133 133 128 125 121 125 135 140 135 128 135 161 194 210 196 175 198 212 184 178 180 190 199 213 208 206 202 198 191 187 187 189 189 192
247 246 253 272 269 264 255 261 266 191 189 201 128 95 108 116 120 129 133 135 143 149 151 148 148 157 168 209 251 217 147 157 153 116 136 167 168 175 189 198 199 195 192 192 191 192 193 191 191
281 263 268 276 279 274 235 223 232 13 11 35 105 118 134 133 133 142 145 150 155 157 160 164 159 160 166 195 221 321 88 130 129 153 149 128 139 159 158 161 166 170 176 183 185 194 194 190 192
285 291 285 261 280 269 257 165 20 9 5 1 16 63 105 136 159 163 159 161 163 162 168 174 166 167 176 189 183 137 94 124 120 62 127 142 136 124 133 144 148 156 163 177 181 177 182 184 189
314 308 295 277 251 264 303 44 54 30 5 355 356 359 19 14 2 295 169 167 165 166 170 172 171 171 179 189 173 152 187 181 168 186 154 148 149 151 159 154 154 156 158 163 162 164 170 184 187
4 345 319 299 293 317 335 68 53 40 2 347 343 338 348 350 330 281 223 174 169 172 174 176 178 183 179 183 175 174 175 159 180 201 175 176 173 168 168 159 166 169 168 168 167 167 165 166 168
Height
1478 1477 1479 1481 1482 1480 1482 1476 1471 1471 1471 1472 1472 1470 1473 1480 1486 1498 1497 1497 1497 1498 1500 1502 1504 1506 1508 1510 1511 1513 1514 1516 1517 1518 1519 1520 1521 1522 1522 1523 1524 1525 1525 1525 1526 1526 1526 1527 1527
1478 1479 1481 1481 1484 1488 1485 1475 1474 1473 1474 1472 1472 1473 1476 1483 1488 1493 1496 1498 1498 1498 1500 1503 1505 1506 1508 1510 1512 1513 1515 1516 1518 1519 1520 1521 1522 1522 1523 1524 1525 1526 1526 1526 1527 1527 1527 1527 1528
1479 1480 1481 1478 1478 1484 1483 1474 1473 1474 1475 1474 1474 1477 1482 1487 1489 1493 1495 1498 1499 1500 1501 1503 1505 1507 1508 1510 1512 1513 1515 1517 1518 1520 1521 1522 1523 1523 1524 1525 1526 1526 1527 1527 1528 1528 1528 1529 1529
1482 1482 1478 1477 1479 1474 1472 1471 1472 1475 1475 1475 1475 1480 1486 1490 1491 1493 1495 1498 1500 1501 1502 1503 1505 1507 1509 1510 1512 1514 1515 1517 1518 1520 1521 1522 1524 1525 1525 1526 1527 1527 1528 1528 1529 1529 1530 1530 1531
1484 1481 1480 1480 1475 1470 1468 1470 1472 1473 1475 1477 1478 1482 1488 1492 1493 1494 1497 1499 1501 1502 1503 1504 1506 1507 1509 1510 1512 1514 1516 1517 1519 1520 1522 1523 1524 1526 1526 1527 1528 1528 1529 1529 1530 1530 1531 1531 1532
1484 1478 1488 1490 1477 1470 1469 1471 1472 1472 1474 1476 1478 1482 1488 1492 1494 1496 1498 1500 1502 1503 1504 1504 1506 1507 1509 1511 1513 1514 1516 1518 1520 1521 1523 1524 1525 1526 1527 1528 1529 1529 1530 1530 1531 1532 1532 1533 1533
1485 1483 1488 1484 1478 1475 1471 1471 1472 1473 1473 1476 1479 1482 1488 1491 1494 1496 1498 1500 1502 1504 1505 1505 1507 1508 1510 1511 1513 1515 1517 1519 1520 1522 1523 1525 1526 1527 1528 1529 1529 1530 1531 1531 1532 1533 1533 1534 1535
1484 1481 1479 1478 1478 1476 1471 1473 1475 1476 1476 1479 1479 1481 1487 1491 1494 1496 1498 1500 1502 1504 1505 1506 1507 1509 1510 1512 1514 1515 1517 1519 1521 1522 1524 1525 1527 1528 1529 1529 1530 1531 1532 1532 1533 1534 1535 1535 1536
1484 1484 1485 1479 1475 1474 1472 1473 1475 1478 1477 1479 1481 1483 1488 1491 1494 1496 1499 1501 1503 1504 1505 1507 1508 1510 1512 1513 1514 1516 1518 1519 1521 1523 1524 1526 1527 1529 1529 1530 1531 1532 1533 1534 1535 1536 1536 1537 1537
1482 1486 1482 1474 1469 1470 1471 1473 1475 1476 1476 1478 1481 1485 1489 1492 1495 1497 1499 1500 1503 1504 1506 1507 1508 1510 1513 1514 1514 1516 1518 1520 1522 1523 1525 1526 1528 1530 1530 1531 1532 1533 1534 1536 1537 1537 1537 1538 1538
1478 1478 1473 1471 1471 1471 1471 1473 1476 1476 1476 1477 1479 1484 1488 1492 1494 1496 1498 1499 1502 1504 1506 1507 1508 1510 1513 1514 1515 1516 1518 1520 1522 1524 1526 1527 1530 1530 1531 1532 1533 1534 1536 1537 1538 1538 1538 1539 1540
1477 1474 1473 1472 1471 1473 1473 1473 1474 1476 1477 1477 1478 1481 1486 1490 1492 1494 1496 1498 1501 1503 1506 1508 1509 1510 1512 1513 1515 1516 1518 1520 1522 1524 1526 1528 1530 1531 1531 1532 1533 1535 1536 1538 1539 1540 1541 1541 1542
1476 1475 1473 1473 1473 1474 1474 1472 1473 1475 1476 1477 1478 1481 1483 1487 1489 1492 1494 1496 1499 1502 1505 1507 1509 1510 1512 1513 1514 1516 1518 1519 1522 1524 1526 1528 1529 1531 1532 1533 1535 1536 1538 1539 1540 1542 1542 1542 1542
1475 1474 1473 1472 1472 1472 1472 1472 1472 1473 1474 1475 1477 1479 1481 1484 1486 1489 1491 1494 1497 1499 1502 1505 1508 1509 1511 1512 1513 1515 1517 1519 1521 1522 1524 1526 1528 1530 1531 1533 1534 1536 1538 1539 1541 1542 1543 1542 1542
1475 1475 1473 1471 1469 1469 1470 1471 1469 1469 1471 1472 1475 1477 1479 1481 1484 1486 1488 1491 1494 1496 1499 1502 1505 1508 1509 1511 1512 1514 1515 1517 1519 1520 1522 1524 1526 1528 1530 1532 1533 1535 1537 1539 1540 1542 1543 1543 1543
1473 1474 1476 1467 1463 1464 1470 1475 1465 1464 1467 1469 1471 1473 1476 1478 1481 1483 1485 1487 1490 1493 1496 1499 1502 1505 1507 1509 1510 1512 1514 1515 1517 1518 1520 1523 1525 1527 1528 1530 1532 1534 1536 1538 1539 1541 1542 1543 1544
1474 1477 1475 1466 1458 1459 1464 1469 1462 1463 1465 1466 1469 1470 1472 1475 1478 1480 1482 1485 1488 1491 1494 1496 1498 1501 1504 1507 1508 1510 1512 1513 1514 1515 1517 1519 1522 1524 1526 1528 1530 1532 1534 1536 1538 1540 1541 1543 1544
1484 1479 1477 1475 1470 1467 1468 1465 1461 1461 1463 1464 1465 1467 1468 1470 1473 1476 1479 1482 1485 1489 1492 1495 1496 1498 1501 1504 1505 1507 1509 1510 1511 1512 1514 1516 1519 1521 1524 1526 1528 1531 1532 1534 1536 1538 1540 1542 1543
1479 1479 1478 1475 1474 1475 1474 1469 1462 1459 1460 1460 1462 1463 1464 1465 1467 1470 1474 1478 1482 1487 1490 1492 1494 1496 1498 1499 1501 1504 1506 1507 1509 1510 1511 1513 1515 1518 1521 1522 1525 1528 1529 1531 1533 1536 1537 1540 1542
1480 1482 1482 1478 1478 1477 1476 1471 1463 1459 1458 1458 1458 1458 1459 1460 1462 1465 1469 1474 1480 1484 1487 1490 1492 1494 1495 1496 1498 1500 1503 1505 1506 1507 1509 1510 1512 1515 1517 1519 1522 1524 1526 1528 1530 1532 1534 1537 1539
1484 1489 1489 1490 1483 1478 1481 1477 1466 1457 1455 1454 1453 1453 1455 1457 1459 1462 1466 1472 1477 1482 1485 1487 1489 1491 1492 1493 1495 1497 1499 1501 1503 1504 1506 1507 1509 1511 1513 1516 1518 1520 1522 1524 1527 1529 1531 1534 1536
1486 1482 1486 1488 1492 1494 1492 1497 1475 1461 1456 1451 1450 1450 1451 1454 1458 1460 1465 1471 1476 1480 1483 1485 1487 1488 1489 1491 1492 1494 1496 1498 1500 1501 1503 1504 1506 1508 1509 1511 1514 1516 1518 1520 1523 1525 1527 1530 1532
1478 1478 1482 1486 1490 1494 1489 1496 1478 1461 1459 1452 1447 1448 1449 1452 1456 1460 1465 1470 1475 1478 1482 1484 1485 1486 1487 1489 1490 1492 1494 1496 1498 1499 1500 1501 1503 1504 1505 1507 1509 1511 1513 1515 1518 1521 1523 1525 1528
1473 1478 1481 1483 1488 1496 1481 1486 1480 1463 1457 1452 1448 1446 1448 1451 1455 1460 1465 1470 1474 1477 1480 1482 1484 1485 1486 1488 1489 1490 1493 1494 1496 1496 1498 1499 1499 1500 1501 1503 1504 1506 1508 1510 1513 1515 1518 1520 1523
1472 1482 1495 1496 1499 1490 1472 1474 1469 1453 1449 1449 1447 1446 1447 1450 1454 1459 1465 1469 1473 1476 1479 1481 1482 1484 1485 1487 1488 1490 1491 1492 1494 1495 1495 1496 1496 1497 1498 1499 1500 1501 1503 1505 1508 1510 1512 1515 1518
1469 1475 1493 1501 1496 1487 1478 1477 1459 1447 1446 1446 1446 1447 1449 1452 1455 1459 1464 1469 1472 1475 1478 1480 1481 1483 1484 1486 1488 1490 1490 1490 1492 1492 1493 1493 1494 1494 1495 1495 1496 1497 1499 1501 1502 1504 1507 1509 1512
1468 1468 1465 1475 1478 1481 1474 1465 1454 1449 1449 1448 1447 1448 1451 1453 1456 1459 1464 1468 1471 1474 1476 1479 1480 1482 1483 1485 1487 1488 1489 1489 1490 1490 1491 1491 1491 1492 1492 1492 1493 1494 1495 1496 1498 1500 1502 1504 1507
1464 1465 1468 1479 1492 1489 1470 1468 1481 1470 1467 1459 1454 1451 1452 1454 1457 1459 1462 1466 1469 1472 1475 1477 1479 1481 1482 1484 1485 1486 1487 1487 1488 1488 1489 1489 1490 1490 1490 1490 1491 1491 1492 1493 1494 1496 1497 1499 1502
1472 1474 1474 1475 1476 1485 1489 1486 1478 1480 1479 1474 1467 1462 1459 1459 1459 1459 1460 1463 1466 1470 1473 1475 1477 1479 1481 1482 1484 1484 1485 1486 1486 1487 1487 1487 1488 1488 1488 1489 1489 1490 1490 1491 1492 1493 1494 1496 1498
1478 1485 1486 1492 1487 1478 1486 1493 1481 1481 1481 1477 1472 1466 1461 1460 1459 1459 1460 1462 1464 1467 1469 1472 1474 1477 1478 1480 1482 1482 1484 1484 1485 1485 1486 1486 1487 1487 1488 1488 1489 1489 1489 1490 1491 1492 1493 1494 1495